CAPE
0 0 0 0 21 3 0 0 15 3 10 23 324 150 129 141 659 701 573 314 614 1397 3062 3750 4051 4001 4109 3074 3592 3764 3027 2783 3491 3203 3088 3121 3307 3188 3320 3995 4261 4740 4727 4592
0 0 0 0 0 20 0 0 0 0 0 0 195 477 323 228 1018 960 814 555 741 2996 3122 3199 3681 3635 3770 3779 3976 4396 4589 3963 4035 3509 3138 2920 4776 4728 4941 4744 4836 4654 4906 4608
0 0 0 0 0 0 2 1 0 0 0 0 15 193 463 374 798 1188 906 629 981 2716 2946 3275 3859 3858 4048 4094 4056 4316 4301 3878 3860 3915 4963 5165 5151 5032 4819 4609 4235 3840 3398 3572
0 0 0 0 0 0 0 1 3 0 0 0 12 1 14 330 532 1345 1136 980 977 1713 2429 3330 3272 3412 3745 3822 4091 3906 3625 3874 4903 5156 4953 4747 4310 3841 3169 2486 2502 2573 2366 2392
150 9 0 0 0 0 4 11 2 0 0 0 0 1 20 3 2 1244 1275 1052 819 952 1800 2712 2956 3470 3431 3589 3747 3581 4677 4994 4940 4759 4332 3904 3145 2277 1926 1764 2107 2026 1750 1986
25 78 118 0 0 0 1 24 0 0 0 0 0 8 6 20 24 51 1112 1168 550 663 1603 2149 2738 3023 3929 4010 4128 4726 4657 4560 4315 3934 3249 2545 1980 1815 1933 2148 1948 1874 1472 1421
34 201 106 0 0 0 83 51 50 7 9 4 8 76 38 81 139 55 122 646 1012 978 1431 2053 2439 2891 3893 4089 4502 4424 4227 3749 3315 2675 2405 2227 2471 2365 2255 2292 2307 1959 1637 1511
133 402 368 128 36 108 499 723 155 515 307 366 53 252 554 385 338 442 710 853 1132 1588 1450 1908 2634 3306 3876 4313 4690 4325 3825 3155 2817 2695 1492 1800 1993 2289 2409 2372 2070 1784 1712 1665
184 239 478 651 663 950 801 681 545 671 547 538 205 1043 995 1212 1201 2281 2361 2765 2293 1889 1777 1232 3128 3715 4288 4777 4204 3562 2705 2561 2509 2457 2108 2045 1677 2474 2009 1969 1898 1052 193 4
629 669 1045 771 693 693 537 570 663 553 569 500 1110 1223 1352 1336 3226 3314 2955 3029 2775 1738 723 360 2988 4490 3885 3783 2841 2622 2684 2692 2294 2220 2272 2684 1958 1385 1231 987 623 596 231 157
908 1203 880 930 894 842 799 756 794 767 863 1244 1750 1857 2425 3801 4114 3992 4322 4166 3913 3368 2278 1531 1867 1555 2287 2468 2738 2314 2207 1436 1285 1205 1447 1688 2012 1341 1014 992 396 214 66 62
739 680 575 1652 1081 965 1130 1403 1570 1948 2403 2757 3309 3794 3630 3403 3518 3605 3880 3714 3044 2287 1152 1019 1128 1341 1579 1203 1053 1022 1141 1290 1257 738 1000 761 609 484 274 32 0 0 0 0
338 228 393 1014 1602 1916 2208 2384 2506 2857 3457 3597 3263 2943 3209 3186 3251 2790 2877 2676 2482 2212 1584 1295 1162 994 644 707 446 545 308 1183 744 240 295 400 724 598 211 44 0 0 0 10
223 0 169 764 1315 1359 1393 1875 2302 2516 2236 2257 2449 2340 2345 2671 2644 2651 2336 1854 1776 1669 1568 1360 801 892 662 1401 1297 771 886 184 442 548 555 378 154 35 0 0 12 27 16 1
25 1 504 1237 1415 1047 1006 1081 1395 1568 1806 1768 1616 1589 1566 2179 2380 2106 1900 2112 1722 1685 1790 1814 1937 1541 1112 599 679 880 965 469 436 311 276 0 8 17 12 22 7 5 11 0
692 861 1208 928 1071 980 1002 972 1051 1115 1607 1382 1541 2114 2168 2252 2282 2325 2211 2158 1902 1791 1826 1698 1386 1186 670 598 613 530 24 2 0 0 0 0 4 5 3 4 0 0 0 0
1036 1347 1021 886 928 1040 1273 1365 1311 1263 1838 2080 2296 2113 1990 1950 1983 1987 1935 1564 1885 1579 1339 1531 962 1054 919 238 77 0 0 0 0 2 0 0 2 0 0 0 0 0 0 0
726 855 809 786 1107 937 1294 1715 1653 1559 1781 1942 2111 2083 2001 2100 2053 2009 1687 1384 1333 1368 1153 482 327 250 0 0 0 0 0 0 0 0 0 0 0 0 0 0 0 0 0 5
572 470 316 283 328 867 1176 1310 1586 1782 2076 2101 2140 2236 2095 1896 1837 1581 1319 1279 1394 1199 528 149 0 1 0 0 0 0 0 0 0 0 0 0 0 0 0 0 0 0 6 4
614 626 632 565 471 643 1686 1549 1339 1659 1770 1831 1723 1793 1707 1351 1257 1111 1424 828 756 582 227 10 9 6 0 0 0 0 0 0 0 0 0 0 0 0 5 0 2 1 0 7
483 582 771 938 1057 1101 1056 1386 1169 1271 1358 1442 1612 1681 1417 1242 845 609 1279 703 386 128 0 0 0 0 0 0 0 0 0 0 0 0 0 0 0 0 0 0 3 2 2 3
675 502 637 794 911 947 921 878 1054 1469 1468 1594 1464 1292 1189 818 682 814 1082 763 18 0 10 0 0 0 0 0 0 0 0 0 0 0 0 0 2 0 1 0 0 0 2 4
718 436 439 997 821 737 707 710 740 800 981 1020 848 798 529 1051 953 1143 923 363 1 0 0 0 0 0 0 0 0 0 0 0 0 0 0 0 0 0 0 0 0 0 0 0
245 306 253 201 400 904 1040 714 583 697 960 1333 965 1012 338 104 59 77 140 32 4 0 0 0 0 0 0 0 0 2 3 0 0 0 0 0 0 0 0 0 1 0 0 0
44 10 87 1 2 108 439 86 84 243 481 1069 999 562 310 322 676 358 21 8 0 0 0 0 0 0 0 0 0 0 2 0 1 5 6 0 0 0 0 0 0 0 0 0
0 0 10 30 27 30 19 29 0 53 190 500 379 321 143 161 64 44 31 0 0 0 0 0 0 0 0 0 0 0 0 0 0 0 4 2 5 6 2 0 0 0 1 14
4 2 9 35 8 57 31 9 7 61 68 119 146 121 260 321 72 27 0 1 0 0 0 1 0 0 0 0 0 0 0 0 0 0 0 8 3 3 6 21 20 4 0 0
CIN
-0 -0 -0 -0 -4 -2 -0 -0 -0 -1 -0 -5 -27 -9 -5 -4 -16 -45 -47 -82 -47 -86 -168 -176 -150 -138 -71 -101 -48 -12 -50 -20 -19 -15 -37 -33 -35 -23 -16 -3 -1 -0 -0 -1
-0 -0 -0 -0 -0 -2 -0 -0 -0 -0 -0 -0 -8 -13 -20 -7 -13 -44 -63 -76 -56 -104 -172 -194 -198 -185 -111 -68 -23 -18 -29 -27 -44 -63 -59 -47 -0 -0 -0 -0 -0 -0 -0 -1
-0 -0 -0 -0 -0 -0 -0 -0 -0 -0 -0 -0 -11 -6 -8 -6 -7 -32 -59 -69 -70 -84 -129 -146 -163 -153 -95 -75 -43 -39 -47 -50 -40 -19 -0 -0 -0 -0 -2 -1 -4 -9 -17 -9
-0 -0 -0 -0 -0 -0 -0 -2 -1 -0 -0 -0 -16 -2 -10 -5 -4 -20 -40 -54 -78 -94 -114 -87 -127 -143 -102 -91 -43 -53 -62 -34 -0 -1 -2 -2 -0 -0 -12 -32 -26 -23 -25 -15
-0 -1 -0 -0 -0 -0 -0 -2 -3 -0 -0 -0 -0 -3 -8 -9 -5 -15 -35 -56 -66 -71 -125 -134 -90 -68 -101 -85 -79 -66 -0 -0 -1 -3 -0 -0 -14 -56 -52 -47 -23 -20 -27 -4
-18 -0 -0 -0 -0 -0 -0 -0 -0 -0 -0 -0 -0 -0 -1 -3 -0 -9 -13 -37 -50 -92 -137 -174 -128 -62 -10 -27 -22 -0 -1 -3 -1 -1 -18 -36 -64 -71 -68 -44 -42 -22 -43 -33
-25 -4 -4 -0 -0 -0 -0 -0 -0 -1 -3 -0 -0 -2 -4 -16 -32 -36 -31 -22 -39 -70 -121 -127 -163 -67 -4 -4 -0 -1 -4 -11 -31 -75 -81 -79 -51 -38 -36 -21 -12 -27 -28 -29
-0 -0 -0 -8 -2 -3 -13 -25 -7 -16 -10 -14 -3 -12 -37 -43 -25 -28 -33 -30 -30 -78 -139 -131 -72 -34 -0 -1 -2 -9 -25 -40 -33 -41 -94 -83 -66 -23 -5 -3 -6 -16 -20 -23
-0 -0 -13 -15 -9 -44 -14 -40 -61 -49 -29 -51 -30 -25 -44 -27 -29 -28 -43 -115 -119 -179 -79 -15 -17 -7 -2 -11 -19 -15 -45 -46 -45 -46 -54 -39 -67 -10 -13 -12 -9 -9 -143 -167
-2 -3 -69 -14 -28 -16 -38 -42 -57 -64 -59 -48 -27 -38 -43 -40 -14 -35 -57 -194 -320 -188 -160 -446 -11 -7 -38 -12 -18 -49 -31 -9 -22 -15 -21 -3 -25 -44 -15 -9 -38 -35 -85 -138
-29 -12 -23 -25 -42 -53 -44 -59 -57 -61 -56 -49 -52 -48 -49 -24 -29 -66 -67 -51 -42 -11 -29 -4 -24 -11 -41 -18 -4 -28 -29 -68 -61 -77 -74 -36 -34 -32 -23 -30 -57 -28 -79 -85
-1 -177 -58 -13 -33 -49 -54 -59 -76 -70 -70 -63 -58 -42 -97 -122 -120 -95 -49 -78 -71 -143 -69 -186 -8 -25 -105 -91 -81 -113 -72 -67 -58 -94 -31 -29 -29 -17 -22 -90 -0 -0 -0 -0
-275 -90 -142 -21 -34 -48 -25 -55 -59 -65 -43 -30 -52 -89 -80 -95 -83 -65 -116 -60 -100 -98 -163 -86 -124 -147 -194 -226 -202 -197 -108 -14 -39 -39 -45 -32 -3 -6 -23 -90 -0 -0 -0 -2
-297 -0 -11 -1 -13 -33 -28 -33 -49 -37 -55 -62 -71 -74 -77 -57 -68 -87 -107 -165 -98 -73 -123 -112 -172 -147 -112 -0 -8 -14 -25 -78 -41 -23 -1 -4 -17 -27 -0 -60 -1 -2 -8 -0
-97 -10 -17 -6 -2 -26 -31 -33 -25 -5 -6 -34 -67 -90 -93 -61 -68 -113 -119 -89 -130 -120 -91 -34 -8 -15 -17 -29 -26 -11 -0 -2 -9 -9 -9 -0 -75 -38 -1 -1 -9 -6 -5 -0
-0 -17 -0 -8 -10 -4 -2 -3 -2 -2 -1 -8 -27 -29 -52 -51 -51 -40 -37 -30 -32 -24 -13 -13 -11 -19 -50 -50 -35 -18 -113 -22 -0 -0 -0 -0 -0 -3 -3 -8 -3 -0 -0 -0
-36 -23 -0 -7 -2 -4 -4 -4 -5 -4 -7 -7 -9 -26 -41 -52 -53 -43 -31 -55 -27 -26 -25 -21 -41 -16 -16 -115 -120 -0 -0 -0 -0 -0 -0 -0 -4 -0 -0 -0 -0 -0 -0 -0
-32 -33 -26 -24 -8 -21 -11 -12 -10 -10 -24 -16 -18 -30 -41 -32 -30 -23 -38 -49 -24 -4 -42 -110 -103 -75 -0 -0 -0 -0 -0 -0 -0 -0 -0 -0 -0 -0 -0 -0 -0 -0 -0 -0
-41 -53 -51 -33 -24 -7 -14 -3 -13 -27 -28 -23 -11 -1 -9 -19 -17 -15 -14 -3 -0 -0 -59 -96 -0 -0 -0 -0 -0 -0 -0 -0 -0 -0 -0 -0 -0 -0 -0 -0 -0 -0 -9 -7
-58 -55 -43 -39 -15 -1 -2 -16 -36 -25 -8 -6 -12 -3 -4 -18 -14 -8 -2 -32 -12 -6 -31 -125 -157 -0 -0 -0 -0 -0 -0 -0 -0 -0 -0 -0 -0 -0 -0 -0 -0 -0 -2 -0
-37 -30 -19 -20 -20 -11 -12 -1 -6 -6 -1 -0 -0 -0 -0 -0 -9 -8 -0 -9 -50 -26 -0 -0 -0 -0 -0 -0 -0 -0 -0 -0 -0 -0 -0 -0 -0 -0 -0 -0 -0 -0 -0 -0
-12 -1 -0 -0 -0 -0 -0 -0 -1 -0 -0 -0 -0 -0 -0 -1 -3 -0 -1 -1 -27 -0 -2 -0 -0 -0 -0 -0 -0 -0 -0 -0 -0 -0 -0 -0 -0 -0 -0 -2 -0 -0 -0 -0
-46 -67 -33 -18 -2 -0 -0 -0 -0 -0 -0 -0 -0 -0 -0 -4 -3 -13 -1 -4 -17 -0 -0 -0 -0 -0 -0 -0 -0 -0 -0 -0 -0 -0 -0 -0 -0 -0 -0 -0 -0 -0 -0 -0
-119 -25 -20 -26 -19 -15 -3 -3 -1 -0 -0 -2 -2 -1 -2 -56 -16 -27 -10 -10 -5 -0 -0 -0 -0 -0 -0 -0 -0 -0 -0 -0 -0 -0 -0 -0 -0 -0 -0 -0 -0 -0 -0 -0
-64 -125 -28 -0 -1 -2 -1 -21 -21 -7 -1 -10 -3 -8 -5 -15 -13 -1 -19 -26 -0 -0 -0 -0 -0 -0 -0 -0 -0 -0 -0 -0 -0 -3 -0 -0 -0 -0 -0 -0 -0 -0 -0 -0
-0 -0 -10 -9 -5 -19 -37 -3 -0 -6 -3 -7 -0 -8 -3 -18 -14 -9 -1 -0 -0 -0 -0 -0 -0 -0 -0 -0 -0 -0 -0 -0 -0 -0 -0 -1 -1 -1 -0 -0 -0 -0 -5 -2
-3 -0 -3 -19 -1 -42 -7 -9 -2 -6 -15 -11 -2 -0 -6 -17 -3 -0 -0 -0 -0 -0 -0 -0 -0 -0 -0 -0 -0 -0 -0 -0 -0 -0 -0 -1 -0 -0 -0 -1 -1 -0 -0 -0
Wind_Speed
nan nan nan nan nan nan nan nan nan nan nan nan 34 29 19 12 28 49 37 31 29 33 31 26 24 24 22 22 20 15 24 22 23 19 19 21 23 24 25 25 24 25 25 26
nan nan nan nan nan nan nan nan nan nan nan nan 13 40 36 23 27 45 43 36 29 32 31 29 30 27 22 23 24 27 25 23 22 20 20 23 27 29 30 31 32 34 33 32
nan nan nan nan nan nan nan nan nan nan nan nan nan 18 31 36 28 47 46 38 34 35 30 27 30 25 20 24 24 27 28 29 29 28 27 31 31 34 36 33 31 32 30 32
nan nan nan nan nan nan nan nan nan nan nan nan nan nan nan 21 27 39 43 37 25 36 34 31 29 27 29 32 31 33 36 34 35 37 41 42 44 44 44 40 37 35 36 37
27 nan nan nan nan nan nan nan nan nan nan nan nan nan nan nan nan 27 44 44 38 35 37 35 33 35 35 35 37 38 38 41 43 46 49 49 48 48 45 45 44 45 44 40
nan nan 14 nan nan nan nan nan nan nan nan nan nan nan nan nan nan nan 25 43 56 47 52 43 43 43 42 42 39 39 45 49 50 52 54 56 55 54 52 51 49 47 44 37
nan 26 26 nan nan nan nan nan nan nan nan nan nan nan nan nan 46 nan 37 29 42 56 62 53 47 45 43 46 45 47 50 52 55 57 60 60 60 58 56 54 57 52 44 50
37 21 18 20 nan 16 32 45 26 36 47 46 nan 26 50 50 48 45 36 22 49 60 70 72 61 47 46 49 52 55 55 56 60 61 61 69 72 68 60 57 52 48 44 42
25 34 26 32 33 43 50 39 41 45 51 39 41 55 57 53 54 54 48 48 52 70 72 57 38 44 50 54 57 59 61 63 66 68 68 63 61 59 57 60 59 59 59 nan
12 21 48 48 46 40 39 44 34 43 47 45 48 50 49 46 58 51 57 48 50 56 57 71 45 39 51 56 54 54 58 61 66 68 72 55 63 54 62 64 66 58 54 53
33 36 44 42 54 46 46 45 53 49 51 56 59 54 55 58 59 54 47 44 47 59 59 37 62 45 42 53 56 62 62 62 59 58 67 71 66 64 51 51 55 55 nan nan
37 76 75 65 53 45 48 51 53 60 60 58 57 58 61 57 54 53 47 47 49 53 60 72 52 51 55 59 64 66 69 68 64 57 58 57 57 52 51 nan nan nan nan nan
73 75 79 41 60 60 47 53 57 55 53 54 56 53 55 54 54 54 52 51 51 49 56 56 53 57 53 60 59 57 58 68 64 63 57 49 52 52 49 nan nan nan nan nan
70 nan 41 17 54 65 59 39 49 51 49 49 51 52 54 55 55 54 53 46 43 45 47 52 53 53 60 56 66 62 62 68 64 55 56 55 54 nan nan nan nan nan nan nan
nan nan 25 12 26 34 47 49 49 51 54 52 51 52 52 55 54 48 43 44 46 47 50 49 54 58 58 60 64 61 60 58 57 55 54 nan nan nan nan nan nan nan nan nan
41 5 19 32 38 37 40 40 46 44 49 49 51 52 49 48 48 48 48 50 49 52 56 58 59 60 59 58 54 50 nan nan nan nan nan nan nan nan nan nan nan nan nan nan
54 32 34 34 36 38 43 45 52 51 46 47 49 47 48 49 51 52 54 58 58 58 56 55 54 52 52 53 nan nan nan nan nan nan nan nan nan nan nan nan nan nan nan nan
21 27 33 34 35 34 38 42 44 46 45 44 45 48 50 51 51 50 50 49 49 51 51 51 50 50 nan nan nan nan nan nan nan nan nan nan nan nan nan nan nan nan nan nan
28 29 31 30 32 35 34 40 44 46 47 46 46 47 48 47 46 45 45 44 45 51 47 49 nan nan nan nan nan nan nan nan nan nan nan nan nan nan nan nan nan nan nan nan
35 36 35 33 35 38 43 45 47 44 42 44 44 43 43 43 42 41 44 48 48 49 49 nan nan nan nan nan nan nan nan nan nan nan nan nan nan nan nan nan nan nan nan nan
40 42 42 41 41 44 43 41 41 39 38 39 41 41 42 43 44 43 46 44 45 47 nan nan nan nan nan nan nan nan nan nan nan nan nan nan nan nan nan nan nan nan nan nan
31 31 32 35 35 36 37 39 38 38 39 40 42 42 42 43 43 47 48 47 nan nan nan nan nan nan nan nan nan nan nan nan nan nan nan nan nan nan nan nan nan nan nan nan
32 34 34 29 34 36 37 37 38 37 37 36 36 37 36 40 42 44 43 46 nan nan nan nan nan nan nan nan nan nan nan nan nan nan nan nan nan nan nan nan nan nan nan nan
28 29 30 31 30 35 35 35 34 35 35 35 32 31 29 36 nan nan 32 nan nan nan nan nan nan nan nan nan nan nan nan nan nan nan nan nan nan nan nan nan nan nan nan nan
nan nan nan nan nan 13 28 nan nan 28 28 29 28 30 29 34 33 31 nan nan nan nan nan nan nan nan nan nan nan nan nan nan nan nan nan nan nan nan nan nan nan nan nan nan
nan nan nan nan nan nan nan nan nan nan 20 23 27 31 32 35 nan nan nan nan nan nan nan nan nan nan nan nan nan nan nan nan nan nan nan nan nan nan nan nan nan nan nan nan
nan nan nan nan nan nan nan nan nan nan nan 24 28 29 32 36 nan nan nan nan nan nan nan nan nan nan nan nan nan nan nan nan nan nan nan nan nan nan nan nan nan nan nan nan
Wind_Direction
nan nan nan nan nan nan nan nan nan nan nan nan 281 275 288 283 272 274 279 291 300 297 301 300 294 286 282 296 303 304 313 326 321 332 316 317 324 325 321 322 319 313 309 310
nan nan nan nan nan nan nan nan nan nan nan nan 248 292 295 296 271 279 281 286 286 288 296 308 307 302 294 292 291 278 276 285 293 311 323 338 321 327 338 330 316 314 313 303
nan nan nan nan nan nan nan nan nan nan nan nan nan 243 291 287 277 291 296 298 285 295 296 299 304 304 301 295 288 285 287 289 293 303 312 314 323 320 312 313 307 298 303 298
nan nan nan nan nan nan nan nan nan nan nan nan nan nan nan 283 302 304 306 298 299 299 291 290 297 300 293 288 286 294 300 298 302 306 304 299 302 303 307 308 312 310 308 305
203 nan nan nan nan nan nan nan nan nan nan nan nan nan nan nan nan 301 311 308 298 299 290 291 293 290 290 290 291 296 302 299 296 293 299 302 301 301 302 307 309 311 319 299
nan nan 213 nan nan nan nan nan nan nan nan nan nan nan nan nan nan nan 292 304 310 308 290 285 284 287 291 289 292 293 292 292 292 294 295 294 298 301 302 303 305 307 304 304
nan 187 169 nan nan nan nan nan nan nan nan nan nan nan nan nan 223 nan 220 227 291 287 282 283 283 286 287 286 283 283 286 290 291 290 291 297 297 294 294 297 308 307 307 302
223 196 204 136 nan 177 234 220 233 223 213 211 nan 235 234 237 237 227 224 230 279 277 286 285 284 278 282 281 278 279 282 283 287 289 293 297 296 290 301 310 308 307 306 299
223 229 221 196 215 219 239 227 226 221 228 221 215 232 233 239 241 246 252 268 257 265 258 200 246 263 274 276 277 277 281 285 288 289 288 285 307 310 302 310 306 301 296 nan
202 181 226 221 224 228 226 227 225 223 233 222 229 234 240 245 251 258 271 274 267 267 283 293 320 290 281 277 279 284 279 275 276 282 286 296 288 312 308 303 297 295 290 286
215 230 246 245 216 225 230 233 228 226 229 231 235 240 243 246 257 261 260 261 260 266 267 242 250 260 256 272 276 274 275 278 283 288 307 296 296 314 304 299 298 296 nan nan
204 203 199 244 242 223 229 234 236 236 238 239 243 244 247 252 257 261 261 268 272 272 272 277 282 287 275 269 271 286 286 277 277 305 300 295 296 308 313 nan nan nan nan nan
208 207 194 222 243 239 223 242 243 243 245 249 251 254 254 255 258 261 265 268 267 262 269 278 287 285 287 296 269 278 284 301 304 307 304 307 309 303 300 nan nan nan nan nan
218 nan 112 169 227 238 244 250 249 253 255 255 256 259 261 263 266 269 275 277 274 276 279 282 283 292 278 296 284 301 303 306 309 308 305 301 299 nan nan nan nan nan nan nan
nan nan 109 243 235 241 246 252 258 263 260 261 266 268 271 276 279 281 280 279 278 279 277 276 274 274 277 281 288 292 295 295 292 295 296 nan nan nan nan nan nan nan nan nan
204 89 248 234 243 253 262 264 263 267 270 274 279 279 279 280 280 279 278 277 279 276 274 275 280 281 280 281 287 289 nan nan nan nan nan nan nan nan nan nan nan nan nan nan
217 210 245 256 254 252 257 260 259 264 272 273 274 277 277 275 273 272 270 271 273 276 278 276 275 276 278 276 nan nan nan nan nan nan nan nan nan nan nan nan nan nan nan nan
232 236 238 238 250 254 258 264 268 274 274 275 274 272 273 274 275 275 275 278 280 277 275 276 277 281 nan nan nan nan nan nan nan nan nan nan nan nan nan nan nan nan nan nan
243 242 246 250 258 262 262 266 264 265 266 270 273 274 275 277 278 278 277 277 280 280 281 283 nan nan nan nan nan nan nan nan nan nan nan nan nan nan nan nan nan nan nan nan
245 244 244 244 252 261 258 261 265 270 272 272 274 275 276 277 278 279 276 273 275 288 290 nan nan nan nan nan nan nan nan nan nan nan nan nan nan nan nan nan nan nan nan nan
247 244 245 251 256 261 265 267 270 271 273 276 277 277 278 279 281 285 288 285 287 286 nan nan nan nan nan nan nan nan nan nan nan nan nan nan nan nan nan nan nan nan nan nan
235 251 253 254 261 263 264 266 268 267 269 273 276 279 281 283 282 278 282 287 nan nan nan nan nan nan nan nan nan nan nan nan nan nan nan nan nan nan nan nan nan nan nan nan
244 240 234 247 269 272 271 270 270 271 271 272 274 276 279 281 281 285 281 282 nan nan nan nan nan nan nan nan nan nan nan nan nan nan nan nan nan nan nan nan nan nan nan nan
246 246 242 231 226 257 257 254 256 262 265 266 269 275 275 284 nan nan 274 nan nan nan nan nan nan nan nan nan nan nan nan nan nan nan nan nan nan nan nan nan nan nan nan nan
nan nan nan nan nan 223 272 nan nan 265 269 275 278 270 270 274 287 285 nan nan nan nan nan nan nan nan nan nan nan nan nan nan nan nan nan nan nan nan nan nan nan nan nan nan
nan nan nan nan nan nan nan nan nan nan 276 284 283 283 283 284 nan nan nan nan nan nan nan nan nan nan nan nan nan nan nan nan nan nan nan nan nan nan nan nan nan nan nan nan
nan nan nan nan nan nan nan nan nan nan nan 276 283 286 287 286 nan nan nan nan nan nan nan nan nan nan nan nan nan nan nan nan nan nan nan nan nan nan nan nan nan nan nan nan